Weather Roundup
Issued by NWS

Home | Current Version | Previous Version | Text Only | Print | Product List | Glossary On
Versions: 1 2 3 4 5 6 7 8 9 10 11 12 13 14 15 16 17 18 19 20 21 22 23 24 25 26 27 28 29 30 31 32 33 34 35 36 37 38 39 40 41 42 43 44 45 46 47 48 49 50
000
NZUS93 KARX 250110
HRRWXR

CURRENT HOURLY OBSERVATIONS ACROSS
MUCH OF THE UPPER MISSISSIPPI VALLEY
NATIONAL WEATHER SERVICE LA CROSSE WI
800 PM CDT WED AUG 24 2016


...SOUTHEAST MINNESOTA...


CITY           SKY/WX    TMP DP  RH WIND       PRES   REMARKS
ROCHESTER      CLOUDY    68  64  87 W6        30.00R
ROCHESTER/MAYO FAIR      72  63  72 W8        29.99R
WINONA         CLOUDY    73  61  64 NW5       29.96R
AUSTIN         CLOUDY    70  57  64 NW7       30.00S
ALBERT LEA     CLOUDY    70  61  73 NW5       30.01S
DODGE CENTER   MOCLDY    70  61  73 W8        30.01R
PRESTON        CLOUDY    69  61  76 NW8       30.01R
OWATONNA       PTCLDY    68  63  83 SW5       30.01R
FARIBAULT      PTCLDY    68  61  77 W5        30.00R
$$

...ELSEWHERE IN MINNESOTA...


CITY           SKY/WX    TMP DP  RH WIND       PRES   REMARKS
MINNEAPOLIS    CLOUDY    72  56  57 W7        29.97R
INTNL FALLS    MOCLDY    67  53  61 W6        29.86R
DULUTH         PTCLDY    71  56  58 W12       29.91R
RED WING       PTCLDY    72  59  64 W5        29.95S
REDWOOD FALLS  CLOUDY    69  61  75 W6        30.00S
MANKATO        PTCLDY    70  61  73 W5        30.00S
WORTHINGTON    CLOUDY    65  61  87 W5        30.06S
FAIRMONT       CLOUDY    68  62  81 W6        30.04R
$$

...SOUTHWEST WISCONSIN...


CITY           SKY/WX    TMP DP  RH WIND       PRES   REMARKS
LA CROSSE      CLEAR     74  32  21 W5        29.94R
PRAIRIE DU CHI MOCLDY    77  70  78 NW7       29.94R
BOSCOBEL       MOCLDY    78  73  84 SW5       29.94R
LONE ROCK      PTCLDY    77  72  84 NW5       29.94R
PLATTEVILLE    PTCLDY    76  74  93 NW5       29.96S
FORT MC COY    CLOUDY    71  69  92 W3        29.96R
CAMP DOUGLAS   MOCLDY    72  68  88 W5        29.94R
MAUSTON-NEW LI CLEAR     72  71  95 CALM      29.93S
VIROQUA        FAIR      72  70  93 W3        29.97R
WIS DELLS      MOCLDY    75  70  85 W3        29.95R
$$

...ELSEWHERE IN WISCONSIN...


CITY           SKY/WX    TMP DP  RH WIND       PRES   REMARKS
MILWAUKEE      PTCLDY    83  71  67 W7        29.93R
MADISON        CLOUDY    78  75  90 W3        29.93R
GREEN BAY      CLEAR     73  70  90 SW5       29.91R
EAU CLAIRE     PTCLDY    71  61  70 W6        29.93R
BLACK RVR FLS  FAIR      69  69 100 CALM      29.94S
MEDFORD        CLOUDY    69  66  92 W5        29.94S
WAUSAU         PTCLDY    71  66  84 W5        29.92R
WIS RAPIDS     PTCLDY    72  69  90 W3        29.95R
MARSHFIELD     PTCLDY    70  65  84 W5        29.94R
RICE LAKE      CLOUDY    67  59  76 W5        29.96R
$$

...NORTHEAST IOWA...


CITY           SKY/WX    TMP DP  RH WIND       PRES   REMARKS
WATERLOO       CLOUDY    74  69  85 W5        29.98R
DUBUQUE        CLOUDY    75  71  87 W6        29.96F
DECORAH        MOCLDY    72  68  88 NW3       29.97S
MASON CITY     CLOUDY    69  64  84 NW7       30.04R
CHARLES CITY   CLOUDY    72  70  94 NW5       30.00R
OELWEIN        CLOUDY    73  72  94 NW6       29.99R
$$

...ELSEWHERE IN IOWA...


CITY           SKY/WX    TMP DP  RH WIND       PRES   REMARKS
DES MOINES     CLOUDY    74  71  91 N10       29.96F
IOWA CITY      CLOUDY    80  71  74 N8        29.96S
FORT DODGE     CLOUDY    72  63  73 CALM      30.04R
MARSHALLTOWN   CLOUDY    73  73 100 SW3       30.00R
CEDAR RAPIDS   HVY RAIN  75  74  96 NW8       29.96R FOG
$$

...NORTHERN ILLINOIS...


CITY           SKY/WX    TMP DP  RH WIND       PRES   REMARKS
CHICAGO-OHARE  MOCLDY    79  72  79 W8        29.96R
CHICAGO-MIDWAY MOCLDY    82  71  69 SW7       29.95R
MOLINE         CLOUDY    81  71  71 CALM      29.95S
ROCKFORD       MOCLDY    80  71  74 SW3       29.96R
PEORIA         CLOUDY    81  73  76 CALM      29.98S
$$

NOTE: "FAIR" INDICATES FEW OR NO CLOUDS BELOW 12,000 FEET WITH NO
SIGNIFICANT WEATHER AND/OR OBSTRUCTIONS TO VISIBILITY. WIND
SPEEDS ARE IN MILES-PER-HOUR.




USA.gov is the U.S. government's official web portal to all federal, state and local government web resources and services.